Orbital Elements at Epoch 2459000.5 (2020-May-31.0) TDB
Reference: JPL 10 (heliocentric ecliptic J2000)
Element | Value | Uncertainty (1-sigma) | Units |
e | .1911878797775482 | 7.4851e-08 | |
a | 2.692184051797725 | 2.4336e-08 | au |
q | 2.177471090963589 | 2.0714e-07 | au |
i | 13.99624650554372 | 8.4896e-06 | deg |
node | 20.02234460628813 | 2.1065e-05 | deg |
peri | 150.5463705717132 | 2.6131e-05 | deg |
M | 240.8697171116391 | 1.6902e-05 | deg |
tp | 2459534.418808317467 (2021-Nov-15.91880832) | 8.029e-05 | TDB |
period | 1613.450134878066 4.42 | 2.1877e-05 5.99e-08 | d yr |
n | .2231243421893583 | 3.0254e-09 | deg/d |
Q | 3.206897012631861 | 2.8989e-08 | au |
|
| | Orbit Determination Parameters
Additional Information
|